Rbgn^[z[y[W
メイン
   新天体発見情報
     Comet P/2014 MG4 = 2024 K2 (Spacewatch-PANSTARRS)
投稿するにはまず登録を

フラット表示 前のトピック | 次のトピック
投稿者 スレッド
佐藤裕久
投稿日時: 2024-8-23 0:18
モデレータ
登録日: 2005-6-12
居住地: 日本
投稿: 2697
オンライン
Comet P/2014 MG4 = 2024 K2 (Spacewatch-PANSTARRS)

R. Weryk (西オンタリオ大学,物理および天文学科)の通報によると、5月30.33-30.37日UT、Haleakala
のPan-STARRS1 1.8-m Ritchey-Chretien反射望遠鏡で得たCCD画像から、P/2014 MG4 (CBET 3924を参
照)と思われる恒星状天体として検出した。 Werykは、4月17日にPan-STARRS1反射望遠鏡で、4月18日
と5月7日にPan-STARRS2 1.8-m反射望遠鏡で得た追加観測で恒星状の画像を同定した。
NK 3261 (= ICQ's 2019 CometHandbook)の中野主一氏の予報に対し、Delta(T)は、-0.17 dayであった。
MPEC 2017-E59のG. V. Williamsの予報に対する修正値は、Delta(T) = -0.29 dayであった。
MPEC 2024-M41のM. Rudenkoの予報に対する修正値は、Delta(T) = -0.06 dayであった。
彗星年表2022の佐藤裕久の参考軌道要素の修正値は、Delta(T) = -0.36 dayであった。

検出位置は次のとおり、

     2024 UT             R.A. (2000) Decl.       Mag.
     Apr. 17.49100   15 23 40.93   -31 13 48.2   21.9
          18.46639   15 23 12.37   -31 13 47.3   21.3
          18.46705   15 23 12.30   -31 13 47.0   21.2
     May   7.42522   15 12 00.05   -30 52 34.1   21.0
           7.43696   15 11 59.56   -30 52 32.4   20.7
           7.44869   15 11 59.09   -30 52 31.4   21.5
          30.33421   14 57 47.37   -29 41 42.9   21.2
          30.34491   14 57 47.00   -29 41 40.6   21.2
          30.35563   14 57 46.66   -29 41 38.0   21.5
          30.36633   14 57 46.28   -29 41 35.2   21.3

MPCの連結軌道要素、位置推算表は次のとおり、

Orbital elements:
    P/2014 MG4 (Spacewatch-PANSTARRS)                                           
Epoch 2024 Oct. 17.0 TT = JDT 2460600.5                                         
T 2024 Sept. 6.32413 TT                                 Rudenko                 
q   3.7167146            (2000.0)            P               Q                  
n   0.08779242     Peri.  298.92470     -0.32319413     +0.93849887             
a   5.0137732      Node   311.69083     -0.80170035     -0.33975724             
e   0.2586991      Incl.    9.36503     -0.50281419     -0.06152138             
P  11.2                                                                         
From 216 observations 2013 May 4-2024 May 30, mean residual 0".6.               
                                                                                
Ephemeris:
Date    TT    R. A. (2000) Decl.     Delta      r    Elong.  Phase   m1
2024 07 21    14 52 08.0 -26 54 22   3.2533  3.7229   109.8    14.9  21.8
...
2024 08 05    14 59 20.8 -26 36 35   3.4537  3.7196    97.2    15.7  21.9
...
2024 08 13    15 04 37.3 -26 33 39   3.5645  3.7184    90.7    15.8  22.0
...
2024 08 19    15 09 09.9 -26 34 06   3.6481  3.7177    86.0    15.8  22.0
2024 08 20    15 09 58.1 -26 34 23   3.6620  3.7176    85.2    15.7  22.0
2024 08 21    15 10 47.0 -26 34 43   3.6759  3.7175    84.5    15.7  22.0
...
2024 08 27    15 15 56.4 -26 37 49   3.7591  3.7170    79.9    15.5  22.1
...
2024 09 04    15 23 28.5 -26 44 36   3.8687  3.7167    73.9    15.1  22.1
...
2024 09 19    15 39 25.0 -27 03 28   4.0655  3.7172    62.9    13.9  22.2

(MPEC 2024-Q26、CBET 5431、oaa-comet 6902)

フラット表示 前のトピック | 次のトピック

題名 投稿者 日時
 » Comet P/2014 MG4 = 2024 K2 (Spacewatch-PANSTARRS) 佐藤裕久 2024-8-23 0:18

投稿するにはまず登録を
 
© 1999 Tsutomu Seki.